Regional Weather Roundup
Issued by NWS Kansas City/Pleasant Hill, MO

Home | Current Version | Previous Version | Text Only | Print | Product List | Glossary On
Versions: 1 2 3 4 5 6 7 8 9 10 11 12 13 14 15 16 17 18 19 20 21 22 23 24 25 26 27 28 29 30 31 32 33 34 35 36 37 38 39 40 41 42 43 44 45 46 47 48 49 50
000
ASUS43 KEAX 041911
RWREAX

WEATHER ROUNDUP FOR EASTERN KANSAS AND NORTHWEST MISSOURI
NATIONAL WEATHER SERVICE KANSAS CITY/PLEASANT HILL MO
200 PM CDT SAT JUL 04 2015

KSZ040-057-103>105-MOZ028-029-037-043-042000-
...KANSAS CITY METROPOLITAN AREA...

CITY           SKY/WX    TMP DP  RH WIND       PRES   REMARKS
K.C. INTL      PTSUNNY   79  62  56 S6        30.01F
K.C. DOWNTOWN  SUNNY     82  60  47 VRB5      30.00S
LEES SUMMIT    SUNNY     80  59  48 E5        30.02F
OLATHE - IXD   SUNNY     81  62  52 VRB3      30.01F
OLATHE - OJC   SUNNY     78  60  53 MISG      30.01F
LAWRENCE       SUNNY     80  63  55 S6        30.00F

$$

MOZ001>008-011>017-020>025-030>033-038>040-044>046-053-054-042000-
...NORTHERN AND CENTRAL MISSOURI...

CITY           SKY/WX    TMP DP  RH WIND       PRES   REMARKS
ST. JOSEPH     SUNNY     81  60  48 S8        29.99F
MOSBY          CLEAR     79  59  50 SE3       30.01S
HARRISONVILLE  MOSUNNY   84  61  45 E3        30.03F
WARRENSBURG    SUNNY     81  63  54 S5        30.01S
WHITEMAN AFB   MOSUNNY   81  63  54 VRB5      30.00F
CLINTON        MOSUNNY   81  63  54 S5        30.02S
SEDALIA        SUNNY     81  62  52 SE5       30.03S
WARSAW         FAIR      84  61  45 CALM      30.02S
CHILLICOTHE      N/A     81  62  52 S5        30.02S
KIRKSVILLE     SUNNY     80  58  46 CALM      30.03S

$$

MOZ041-047>049-056>058-063>065-088>090-097-042000-
...EASTERN AND SOUTHERN MISSOURI...

CITY           SKY/WX    TMP DP  RH WIND       PRES   REMARKS
ST. LOUIS INTL MOSUNNY   83  60  45 N3        30.01F
SPIRIT OF STL  PTSUNNY   81  62  52 CALM      30.00F
COLUMBIA       SUNNY     80  62  54 VRB5      30.02S
JEFFERSON CITY SUNNY     81  60  48 MISG      30.00F
MEXICO         MOSUNNY   82  68  61 S6        30.02F
ROLLA          MOSUNNY   79  64  60 E7        30.01F
LEBANON        SUNNY     82  63  51 E7        30.02S
OSAGE BEACH    MOSUNNY   81  63  54 SE7       30.01S
SPRINGFIELD    MOSUNNY   82  65  56 NE6       29.99F
BRANSON        PTSUNNY   81  68  65 CALM      30.01F
JOPLIN         MOSUNNY   84  67  56 E6        29.99F
WEST PLAINS    PTSUNNY   80  66  62 NE6       30.02F
MALDEN         CLOUDY    81  70  69 E3        29.99F

$$

IAZ060-094-KSZ022-034>040-054-083-096-NEZ052-066-093-042000-
...KANSAS...SOUTHEAST NEBRASKA AND IOWA...

CITY           SKY/WX    TMP DP  RH WIND       PRES   REMARKS
TOPEKA         MOSUNNY   82  62  50 E6        29.99F
MANHATTAN      MOSUNNY   84  62  47 SE9       29.97F
EMPORIA        SUNNY     84  61  45 SE10      29.98F
CHANUTE        SUNNY     84  62  47 E5        29.99F
WICHITA        MOSUNNY   86  61  42 SE7       29.97S
OMAHA          PTSUNNY   80  58  46 SE12      29.98F
LINCOLN        CLOUDY    81  64  56 SE13      29.99S
FALLS CITY     MOSUNNY   81  61  50 VRB7      29.99S
LAMONI         SUNNY     80  57  45 S7        30.01F
DES MOINES     MOSUNNY   81  57  43 S8        29.99F

$$



USA.gov is the U.S. government's official web portal to all federal, state and local government web resources and services.